GW3919 Weather Reports


Display with metric or nautical units.
time (UTC)temp
F
wind
direction
speed
MPH
gust
MPH
rain 1hr
in
rain 24hr
in
rain mn
in
humidity
%
barometer
mb
20260831053707 88 260 0.0 2.0 0.00 0.00 0.00 54 1014.8
20260831053206 88 268 1.0 2.0 0.00 0.00 0.00 54 1014.7
20260831052706 88 230 0.0 1.0 0.00 0.00 0.00 54 1014.7
20260831052205 88 294 2.0 2.0 0.00 0.00 0.00 54 1014.7
20260831051703 88 277 1.0 2.0 0.00 0.00 0.00 54 1014.5
20260831051202 88 289 1.0 2.0 0.00 0.00 0.00 54 1014.6
20260831050657 88 269 0.0 1.0 0.00 0.00 0.00 54 1014.6
20260831050156 88 259 1.0 2.0 0.00 0.00 0.00 54 1014.6
20260831045651 88 260 1.0 2.0 0.00 0.00 0.00 54 1014.4
20260831045145 88 329 0.0 1.0 0.00 0.00 0.00 54 1014.6
20260831044640 89 269 0.0 1.0 0.00 0.00 0.00 53 1014.6
20260831044135 89 272 1.0 2.0 0.00 0.00 0.00 52 1014.6
20260831043631 89 312 1.0 4.0 0.00 0.00 0.00 52 1014.5
20260831043126 89 315 1.0 2.0 0.00 0.00 0.00 51 1014.5
20260831042626 89 286 0.0 2.0 0.00 0.00 0.00 51 1014.5
20260831042121 90 292 1.0 2.0 0.00 0.00 0.00 51 1014.6
20260831041615 90 287 1.0 2.0 0.00 0.00 0.00 51 1014.3
20260831041114 90 307 1.0 2.0 0.00 0.00 0.00 51 1014.4
20260831040609 90 333 1.0 2.0 0.00 0.00 0.00 50 1014.4
20260831040103 90 306 1.0 2.0 0.00 0.00 0.00 50 1014.4
20260831035555 90 321 2.0 2.0 0.00 0.00 0.00 50 1014.4
20260831035051 90 321 2.0 2.0 0.00 0.00 0.00 50 1014.4
20260831034550 90 242 0.0 2.0 0.00 0.00 0.00 50 1014.3
20260831034046 90 296 0.0 2.0 0.00 0.00 0.00 50 1014.1
20260831033541 90 336 0.0 1.0 0.00 0.00 0.00 50 1014.2
20260831033036 90 257 0.0 2.0 0.00 0.00 0.00 50 1014.2
20260831032535 90 313 0.0 2.0 0.00 0.00 0.00 50 1014.1
20260831032031 90 280 1.0 1.0 0.00 0.00 0.00 51 1014.3
20260831031531 90 255 0.0 1.0 0.00 0.00 0.00 50 1014.5
20260831031030 90 242 0.0 0.0 0.00 0.00 0.00 50 1014.3
20260831030529 90 242 0.0 1.0 0.00 0.00 0.00 50 1014.2
20260831030029 90 235 0.0 1.0 0.00 0.00 0.00 50 1014.1
20260831025521 91 259 0.0 2.0 0.00 0.00 0.00 49 1014.1
20260831025016 91 284 0.0 2.0 0.00 0.00 0.00 49 1014.0
20260831024507 91 287 0.0 2.0 0.00 0.00 0.00 49 1014.1
20260831024006 91 316 1.0 2.0 0.00 0.00 0.00 48 1014.0
20260831023504 91 263 0.0 2.0 0.00 0.00 0.00 48 1013.9
20260831022959 91 236 1.0 1.0 0.00 0.00 0.00 48 1013.8
20260831022458 92 230 0.0 1.0 0.00 0.00 0.00 48 1013.7
20260831021953 92 295 0.0 2.0 0.00 0.00 0.00 47 1013.7
20260831021452 92 249 1.0 2.0 0.00 0.00 0.00 47 1013.6
20260831020949 92 268 0.0 1.0 0.00 0.00 0.00 47 1013.6
20260831020449 92 310 0.0 1.0 0.00 0.00 0.00 46 1013.4
20260831015943 92 247 0.0 2.0 0.00 0.00 0.00 46 1013.5
20260831015439 93 240 0.0 1.0 0.00 0.00 0.00 46 1013.3
20260831014934 93 275 1.0 2.0 0.00 0.00 0.00 45 1013.2
20260831014429 93 232 1.0 2.0 0.00 0.00 0.00 45 1013.2
20260831013924 94 303 0.0 2.0 0.00 0.00 0.00 45 1013.1
20260831013420 94 276 2.0 2.0 0.00 0.00 0.00 44 1013.1
20260831012914 94 292 2.0 2.0 0.00 0.00 0.00 44 1013.0
20260831012415 94 243 1.0 3.0 0.00 0.00 0.00 44 1013.0
20260831011914 94 272 0.0 2.0 0.00 0.00 0.00 44 1012.9
20260831011409 94 271 1.0 2.0 0.00 0.00 0.00 44 1013.0
20260831010906 95 255 0.0 2.0 0.00 0.00 0.00 44 1012.8
20260831010400 95 269 1.0 1.0 0.00 0.00 0.00 43 1013.0
20260831005856 95 287 2.0 2.0 0.00 0.00 0.00 43 1013.0
20260831005351 96 262 0.0 2.0 0.00 0.00 0.00 42 1012.8
20260831004846 96 269 0.0 2.0 0.00 0.00 0.00 42 1012.8
20260831004342 96 258 2.0 2.0 0.00 0.00 0.00 42 1012.7
20260831003837 96 287 1.0 3.0 0.00 0.00 0.00 41 1012.9
20260831003333 97 253 2.0 2.0 0.00 0.00 0.00 41 1012.7
20260831002827 97 304 1.0 2.0 0.00 0.00 0.00 40 1012.9
20260831002326 98 305 1.0 2.0 0.00 0.00 0.00 40 1012.7
20260831001822 98 332 2.0 4.0 0.00 0.00 0.00 40 1012.8
20260831001317 98 219 1.0 2.0 0.00 0.00 0.00 41 1012.9
20260831000815 98 319 0.0 3.0 0.00 0.00 0.00 41 1012.6
20260831000314 99 318 2.0 4.0 0.00 0.00 0.00 41 1012.8
20260830235813 99 297 2.0 2.0 0.00 0.00 0.00 40 1013.2
20260830235308 100 226 3.0 4.0 0.00 0.00 0.00 40 1012.9
20260830234803 101 289 2.0 3.0 0.00 0.00 0.00 40 1013.2
20260830234259 101 267 2.0 4.0 0.00 0.00 0.00 39 1012.8
20260830233754 101 317 2.0 3.0 0.00 0.00 0.00 39 1012.9
20260830233250 101 241 2.0 4.0 0.00 0.00 0.00 39 1013.0
20260830232745 101 294 1.0 4.0 0.00 0.00 0.00 39 1013.1
20260830232241 101 299 2.0 4.0 0.00 0.00 0.00 39 1012.9
20260830231737 101 260 2.0 5.0 0.00 0.00 0.00 39 1012.9
20260830231236 102 274 2.0 5.0 0.00 0.00 0.00 38 1013.0
20260830230731 102 314 4.0 4.0 0.00 0.00 0.00 38 1013.0
20260830230227 104 297 3.0 3.0 0.00 0.00 0.00 37 1012.9
20260830225726 105 291 1.0 3.0 0.00 0.00 0.00 36 1013.1
20260830225221 103 273 3.0 4.0 0.00 0.00 0.00 37 1013.0
20260830224721 103 272 6.0 6.0 0.00 0.00 0.00 37 1013.2
20260830224216 104 307 2.0 5.0 0.00 0.00 0.00 36 1013.2
20260830223713 103 287 3.0 6.0 0.00 0.00 0.00 36 1013.1
20260830223208 103 190 1.0 4.0 0.00 0.00 0.00 36 1013.3
20260830222702 102 256 2.0 4.0 0.00 0.00 0.00 37 1013.1
20260830222158 101 275 3.0 4.0 0.00 0.00 0.00 37 1013.2
20260830221653 103 286 3.0 4.0 0.00 0.00 0.00 36 1013.3
20260830221144 105 244 1.0 3.0 0.00 0.00 0.00 34 1013.1
20260830220639 103 295 1.0 6.0 0.00 0.00 0.00 35 1013.3
20260830220138 105 313 3.0 5.0 0.00 0.00 0.00 34 1013.4
20260830215637 104 289 4.0 6.0 0.00 0.00 0.00 35 1013.1
20260830215131 104 318 1.0 6.0 0.00 0.00 0.00 35 1013.0
20260830214627 104 288 3.0 4.0 0.00 0.00 0.00 35 1013.1
20260830214127 104 296 4.0 5.0 0.00 0.00 0.00 35 1013.1
20260830213627 103 296 2.0 6.0 0.00 0.00 0.00 36 1013.4
20260830213122 104 354 3.0 6.0 0.00 0.00 0.00 34 1013.4
20260830212618 104 293 2.0 4.0 0.00 0.00 0.00 34 1013.4
20260830212113 101 311 1.0 4.0 0.00 0.00 0.00 37 1013.6
20260830211608 102 286 0.0 3.0 0.00 0.00 0.00 36 1013.6
20260830211107 103 302 4.0 7.0 0.00 0.00 0.00 36 1013.8
20260830210602 104 300 3.0 4.0 0.00 0.00 0.00 35 1013.8
20260830205559 103 267 4.0 4.0 0.00 0.00 0.00 36 1013.7
20260830205055 103 289 2.0 4.0 0.00 0.00 0.00 37 1013.9
20260830204554 100 286 2.0 4.0 0.00 0.00 0.00 38 1014.1
20260830204053 102 284 3.0 5.0 0.00 0.00 0.00 38 1014.0
20260830203550 103 254 2.0 6.0 0.00 0.00 0.00 36 1014.1
20260830203044 103 268 3.0 10.0 0.00 0.00 0.00 36 1014.3
20260830202538 103 228 2.0 4.0 0.00 0.00 0.00 37 1014.3
20260830202034 102 331 2.0 7.0 0.00 0.00 0.00 38 1014.3
20260830201533 103 307 1.0 4.0 0.00 0.00 0.00 37 1014.4
20260830201028 102 318 5.0 7.0 0.00 0.00 0.00 37 1014.5
20260830200524 102 275 4.0 5.0 0.00 0.00 0.00 37 1014.3
20260830200023 102 347 1.0 6.0 0.00 0.00 0.00 38 1014.5
20260830195519 101 264 3.0 6.0 0.00 0.00 0.00 38 1014.6
20260830195016 102 329 4.0 4.0 0.00 0.00 0.00 38 1014.8
20260830194516 102 317 4.0 7.0 0.00 0.00 0.00 38 1014.7
20260830194011 103 313 6.0 6.0 0.00 0.00 0.00 38 1014.9
20260830193510 102 287 1.0 4.0 0.00 0.00 0.00 38 1014.9
20260830193005 100 318 3.0 7.0 0.00 0.00 0.00 40 1015.0
20260830192501 101 287 2.0 5.0 0.00 0.00 0.00 39 1015.0
20260830191956 103 299 2.0 5.0 0.00 0.00 0.00 38 1015.3
20260830191455 102 264 2.0 5.0 0.00 0.00 0.00 38 1015.3
20260830190951 102 262 5.0 6.0 0.00 0.00 0.00 39 1015.4
20260830190446 102 312 2.0 4.0 0.00 0.00 0.00 38 1015.3
20260830185945 102 334 4.0 4.0 0.00 0.00 0.00 40 1015.3
20260830185441 103 0 1.0 4.0 0.00 0.00 0.00 38 1015.4
20260830184936 101 327 3.0 4.0 0.00 0.00 0.00 40 1015.5
20260830184435 101 307 2.0 6.0 0.00 0.00 0.00 40 1015.4
20260830183930 102 250 3.0 5.0 0.00 0.00 0.00 39 1015.8
20260830183424 102 338 3.0 4.0 0.00 0.00 0.00 40 1015.5
20260830182920 101 8 1.0 5.0 0.00 0.00 0.00 41 1015.8
20260830182415 99 333 1.0 6.0 0.00 0.00 0.00 42 1015.8
20260830181912 99 294 3.0 5.0 0.00 0.00 0.00 42 1016.0
20260830181407 100 328 4.0 4.0 0.00 0.00 0.00 41 1016.1
20260830180906 101 315 4.0 4.0 0.00 0.00 0.00 42 1015.9
20260830180401 101 280 3.0 5.0 0.00 0.00 0.00 42 1016.2
20260830175859 100 321 4.0 6.0 0.00 0.00 0.00 43 1016.2
20260830175354 100 309 5.0 5.0 0.00 0.00 0.00 42 1016.2
20260830174849 100 198 4.0 4.0 0.00 0.00 0.00 43 1016.4
20260830174345 100 243 2.0 6.0 0.00 0.00 0.00 44 1016.7
20260830173839 101 253 4.0 5.0 0.00 0.00 0.00 43 1016.5
20260830173335 100 247 3.0 4.0 0.00 0.00 0.00 43 1016.6
20260830172831 99 280 4.0 6.0 0.00 0.00 0.00 45 1016.5
20260830172327 100 321 4.0 6.0 0.00 0.00 0.00 44 1016.7
20260830171822 100 323 4.0 4.0 0.00 0.00 0.00 44 1016.7
20260830171317 98 323 0.0 3.0 0.00 0.00 0.00 47 1016.8
20260830170807 99 58 1.0 4.0 0.00 0.00 0.00 46 1016.9
20260830170306 98 312 3.0 5.0 0.00 0.00 0.00 47 1016.9
20260830165805 98 317 6.0 6.0 0.00 0.00 0.00 46 1016.7
20260830165305 97 255 2.0 5.0 0.00 0.00 0.00 48 1016.9
20260830164757 97 308 0.0 2.0 0.00 0.00 0.00 49 1017.2
20260830164252 97 165 2.0 6.0 0.00 0.00 0.00 49 1017.1
20260830163749 97 15 0.0 5.0 0.00 0.00 0.00 49 1017.3
20260830163244 97 243 2.0 4.0 0.00 0.00 0.00 49 1017.3
20260830162738 97 322 3.0 4.0 0.00 0.00 0.00 49 1017.2
20260830162235 97 261 2.0 5.0 0.00 0.00 0.00 50 1017.3
20260830161730 95 274 1.0 6.0 0.00 0.00 0.00 52 1017.4
20260830161224 96 303 2.0 3.0 0.00 0.00 0.00 52 1017.3
20260830160720 95 157 2.0 6.0 0.00 0.00 0.00 54 1017.2
20260830160220 95 219 0.0 6.0 0.00 0.00 0.00 54 1017.2
20260830155717 95 299 2.0 3.0 0.00 0.00 0.00 54 1017.3
20260830155212 94 317 1.0 5.0 0.00 0.00 0.00 54 1017.4
20260830154707 93 336 2.0 4.0 0.00 0.00 0.00 56 1017.3
20260830154203 94 272 3.0 4.0 0.00 0.00 0.00 56 1017.4
20260830153700 92 299 0.0 3.0 0.00 0.00 0.00 59 1017.6
20260830153159 92 19 1.0 5.0 0.00 0.00 0.00 59 1017.3
20260830152658 91 323 5.0 5.0 0.00 0.00 0.00 60 1017.4
20260830152157 91 160 4.0 4.0 0.00 0.00 0.00 60 1017.3
20260830151653 92 255 3.0 4.0 0.00 0.00 0.00 59 1017.4
20260830151152 92 323 3.0 4.0 0.00 0.00 0.00 60 1017.3
20260830150647 92 312 4.0 6.0 0.00 0.00 0.00 60 1017.7
20260830150142 89 259 2.0 3.0 0.00 0.00 0.00 63 1017.4
20260830145641 89 147 0.0 4.0 0.00 0.00 0.00 64 1017.4
20260830145137 90 319 2.0 4.0 0.00 0.00 0.00 62 1017.2
20260830144632 90 0 2.0 4.0 0.00 0.00 0.00 62 1017.2
20260830144128 89 68 1.0 4.0 0.00 0.00 0.00 63 1017.3
20260830143624 89 232 1.0 4.0 0.00 0.00 0.00 63 1017.6
20260830143121 89 294 2.0 5.0 0.00 0.00 0.00 64 1017.6
20260830142617 90 296 0.0 2.0 0.00 0.00 0.00 64 1017.3
20260830142112 88 215 0.0 4.0 0.00 0.00 0.00 65 1017.7
20260830141607 89 265 1.0 3.0 0.00 0.00 0.00 64 1017.4
20260830141102 89 240 0.0 2.0 0.00 0.00 0.00 64 1017.4
20260830140556 88 292 2.0 3.0 0.00 0.00 0.00 66 1017.4
20260830140052 88 306 0.0 2.0 0.00 0.00 0.00 67 1017.4
20260830135547 89 125 1.0 2.0 0.00 0.00 0.00 66 1017.3
20260830135042 88 225 1.0 2.0 0.00 0.00 0.00 66 1017.2
20260830134538 87 269 1.0 2.0 0.00 0.00 0.00 67 1017.3
20260830134033 87 121 0.0 2.0 0.00 0.00 0.00 67 1017.2
20260830133528 86 300 1.0 2.0 0.00 0.00 0.00 69 1017.3
20260830133024 85 251 1.0 2.0 0.00 0.00 0.00 69 1017.2
20260830132520 86 206 0.0 2.0 0.00 0.00 0.00 69 1017.1
20260830132020 85 249 1.0 2.0 0.00 0.00 0.00 70 1017.1
20260830131518 84 297 0.0 2.0 0.00 0.00 0.00 70 1017.2
20260830131014 84 313 1.0 2.0 0.00 0.00 0.00 71 1017.2
20260830130509 84 242 1.0 3.0 0.00 0.00 0.00 71 1016.8
20260830130004 83 164 0.0 2.0 0.00 0.00 0.00 73 1017.0
20260830125458 81 342 0.0 2.0 0.00 0.00 0.00 75 1017.1
20260830124956 80 216 0.0 1.0 0.00 0.00 0.00 76 1017.0
20260830124451 80 343 0.0 2.0 0.00 0.00 0.00 76 1016.8
20260830123947 80 254 0.0 1.0 0.00 0.00 0.00 76 1016.7
20260830123443 80 226 0.0 1.0 0.00 0.00 0.00 76 1016.6
20260830122941 80 269 0.0 1.0 0.00 0.00 0.00 76 1016.6
20260830122440 80 318 1.0 2.0 0.00 0.00 0.00 76 1016.5
20260830121935 79 228 0.0 2.0 0.00 0.00 0.00 76 1016.6
20260830121431 79 224 0.0 1.0 0.00 0.00 0.00 76 1016.3
20260830120925 80 258 0.0 1.0 0.00 0.00 0.00 76 1016.6
20260830120421 80 230 0.0 1.0 0.00 0.00 0.00 75 1016.4
20260830115917 80 248 0.0 2.0 0.00 0.00 0.00 75 1016.3
20260830115414 80 224 0.0 1.0 0.00 0.00 0.00 75 1016.2
20260830114909 80 241 1.0 2.0 0.00 0.00 0.00 74 1016.1
20260830114406 80 309 0.0 2.0 0.00 0.00 0.00 74 1015.9
20260830113905 80 286 1.0 1.0 0.00 0.00 0.00 74 1016.0
20260830113400 80 225 1.0 1.0 0.00 0.00 0.00 74 1016.0
20260830112856 80 269 0.0 1.0 0.00 0.00 0.00 73 1015.9
20260830112351 80 284 0.0 1.0 0.00 0.00 0.00 73 1015.7
20260830111847 80 293 0.0 1.0 0.00 0.00 0.00 72 1015.8
20260830111343 80 284 1.0 2.0 0.00 0.00 0.00 72 1015.6
20260830110843 81 261 0.0 2.0 0.00 0.00 0.00 72 1015.7
20260830110339 81 295 0.0 2.0 0.00 0.00 0.00 71 1015.5
20260830105838 81 252 0.0 2.0 0.00 0.00 0.00 71 1015.5
20260830105335 81 319 0.0 2.0 0.00 0.00 0.00 71 1015.4
20260830104831 81 302 0.0 2.0 0.00 0.00 0.00 70 1015.6
20260830104327 81 282 0.0 2.0 0.00 0.00 0.00 70 1015.3
20260830103826 81 315 0.0 1.0 0.00 0.00 0.00 69 1015.4
20260830103323 81 282 0.0 1.0 0.00 0.00 0.00 69 1015.6
20260830102820 82 272 0.0 1.0 0.00 0.00 0.00 68 1015.3
20260830102316 82 277 1.0 1.0 0.00 0.00 0.00 68 1015.3
20260830101812 82 326 1.0 2.0 0.00 0.00 0.00 68 1015.5
20260830101307 81 262 0.0 1.0 0.00 0.00 0.00 68 1015.4
20260830100806 81 310 0.0 1.0 0.00 0.00 0.00 67 1015.3
20260830100301 81 235 0.0 1.0 0.00 0.00 0.00 67 1015.3
20260830095759 81 320 0.0 2.0 0.00 0.00 0.00 67 1015.3
20260830095256 81 297 0.0 0.0 0.00 0.00 0.00 66 1015.3
20260830094752 81 220 0.0 1.0 0.00 0.00 0.00 65 1015.3
20260830094248 82 269 0.0 0.0 0.00 0.00 0.00 64 1015.5
20260830093742 82 290 2.0 2.0 0.00 0.00 0.00 64 1015.5
20260830093238 82 203 0.0 1.0 0.00 0.00 0.00 64 1015.3
20260830092733 82 267 0.0 2.0 0.00 0.00 0.00 64 1015.3
20260830092230 82 263 0.0 1.0 0.00 0.00 0.00 64 1015.4
20260830091726 82 233 1.0 1.0 0.00 0.00 0.00 64 1015.5
20260830091225 82 223 0.0 1.0 0.00 0.00 0.00 64 1015.3
20260830090723 82 252 0.0 1.0 0.00 0.00 0.00 64 1015.1
20260830090220 82 224 0.0 0.0 0.00 0.00 0.00 63 1015.4
20260830085719 82 242 0.0 1.0 0.00 0.00 0.00 63 1015.5
20260830085215 82 217 0.0 0.0 0.00 0.00 0.00 63 1015.3
20260830084710 82 223 0.0 1.0 0.00 0.00 0.00 62 1015.4
20260830084205 82 250 0.0 2.0 0.00 0.00 0.00 62 1015.3
20260830083700 83 235 0.0 0.0 0.00 0.00 0.00 61 1015.4
20260830083156 83 240 0.0 1.0 0.00 0.00 0.00 61 1015.4
20260830082655 83 229 0.0 1.0 0.00 0.00 0.00 60 1015.2
20260830082151 83 284 0.0 1.0 0.00 0.00 0.00 60 1015.4
20260830081647 84 309 0.0 1.0 0.00 0.00 0.00 59 1015.4
20260830081147 84 224 0.0 0.0 0.00 0.00 0.00 59 1015.2
20260830080641 84 264 0.0 1.0 0.00 0.00 0.00 58 1015.3
20260830080137 84 316 2.0 2.0 0.00 0.00 0.00 58 1015.3
20260830075636 84 282 0.0 2.0 0.00 0.00 0.00 58 1015.3
20260830075131 85 290 0.0 3.0 0.00 0.00 0.00 57 1015.3
20260830074627 85 268 1.0 3.0 0.00 0.00 0.00 57 1015.3
20260830074117 85 260 2.0 2.0 0.00 0.00 0.00 57 1015.3
20260830073614 85 244 0.0 2.0 0.00 0.00 0.00 57 1015.2
20260830073113 85 269 0.0 1.0 0.00 0.00 0.00 57 1015.4
20260830072609 85 247 2.0 2.0 0.00 0.00 0.00 57 1015.2
20260830072109 85 280 1.0 2.0 0.00 0.00 0.00 57 1015.5
20260830071605 86 258 0.0 1.0 0.00 0.00 0.00 56 1015.4
20260830071102 86 259 2.0 2.0 0.00 0.00 0.00 56 1015.4
20260830070557 86 230 0.0 2.0 0.00 0.00 0.00 55 1015.5
20260830070057 86 234 2.0 2.0 0.00 0.00 0.00 55 1015.4
20260830065556 87 288 1.0 2.0 0.00 0.00 0.00 55 1015.5
20260830065055 87 266 1.0 2.0 0.00 0.00 0.00 55 1015.3
20260830064550 86 211 1.0 2.0 0.00 0.00 0.00 56 1015.3
20260830064045 87 230 0.0 2.0 0.00 0.00 0.00 55 1015.5
20260830063539 87 288 2.0 3.0 0.00 0.00 0.00 55 1015.4
20260830063039 87 249 0.0 2.0 0.00 0.00 0.00 54 1015.3
20260830062538 86 232 3.0 3.0 0.00 0.00 0.00 54 1015.4
20260830062033 86 317 0.0 3.0 0.00 0.00 0.00 55 1015.5
20260830061528 86 329 0.0 2.0 0.00 0.00 0.00 55 1015.3
20260830061025 86 262 1.0 2.0 0.00 0.00 0.00 54 1015.2
20260830060521 86 301 1.0 3.0 0.00 0.00 0.00 54 1015.3
20260830060017 86 274 0.0 2.0 0.00 0.00 0.00 54 1015.4
20260830055512 86 272 0.0 2.0 0.00 0.00 0.00 54 1015.3
20260830055008 86 253 1.0 2.0 0.00 0.00 0.00 54 1015.2
20260830054503 86 249 1.0 2.0 0.00 0.00 0.00 53 1015.2